T7GPM LICT-LIPR

Flight info

Callsign T7GPM
Flight time 1h 29m
Altitude 30000
Route GIANO1H GIANO DCT RONAB DCT KONUT DCT RITEB DCT LIKNO M730 ASDOR ASDOR3E
Aircraft P180/L-SDFGIRWY/L

Departure

Time 2026-04-30 12:37
Airport Vincenzo Florio Airport Trapani-Birgi (LICT)

Arrival

Time 2026-04-30 14:07
Airport Federico Fellini International Airport (LIPR)
Time Latitude Longitude Altitude Speed Heading
2026-04-30 12:24 37.90317 12.49529 26 ft 0 kts 260°
2026-04-30 12:30 37.90317 12.49526 26 ft 1 kts 276°
2026-04-30 12:31 37.90330 12.49521 24 ft 3 kts 24°
2026-04-30 12:31 37.90358 12.49545 24 ft 6 kts 40°
2026-04-30 12:31 37.90404 12.49537 25 ft 9 kts 344°
2026-04-30 12:31 37.90471 12.49546 23 ft 11 kts 345°
2026-04-30 12:32 37.90551 12.49504 24 ft 13 kts 337°
2026-04-30 12:32 37.90643 12.49457 23 ft 15 kts 339°
2026-04-30 12:32 37.90743 12.49396 22 ft 17 kts 329°
2026-04-30 12:32 37.90830 12.49285 25 ft 19 kts 305°
2026-04-30 12:33 37.90917 12.49147 18 ft 21 kts 308°
2026-04-30 12:33 37.91011 12.48996 18 ft 22 kts 308°
2026-04-30 12:33 37.91110 12.48835 17 ft 27 kts 308°
2026-04-30 12:33 37.91232 12.48633 17 ft 29 kts 306°
2026-04-30 12:34 37.91342 12.48443 15 ft 25 kts 306°
2026-04-30 12:34 37.91438 12.48284 12 ft 25 kts 307°
2026-04-30 12:34 37.91564 12.48076 9 ft 31 kts 307°
2026-04-30 12:34 37.91669 12.47911 8 ft 19 kts 309°
2026-04-30 12:35 37.91766 12.47755 7 ft 26 kts 307°
2026-04-30 12:35 37.91855 12.47600 8 ft 15 kts 296°
2026-04-30 12:35 37.91877 12.47509 8 ft 7 kts 320°
2026-04-30 12:35 37.91889 12.47569 8 ft 13 kts 109°
2026-04-30 12:36 37.91868 12.47613 8 ft 0 kts 127°
2026-04-30 12:36 37.91865 12.47619 8 ft 1 kts 128°
2026-04-30 12:36 37.91760 12.47790 8 ft 56 kts 128°
2026-04-30 12:36 37.91454 12.48287 12 ft 96 kts 128°
2026-04-30 12:37 37.90966 12.49077 28 ft 127 kts 128°
2026-04-30 12:37 37.90412 12.49972 304 ft 131 kts 128°
2026-04-30 12:37 37.89887 12.50816 564 ft 124 kts 128°
2026-04-30 12:37 37.89306 12.51742 817 ft 143 kts 130°
2026-04-30 12:38 37.88469 12.52491 1153 ft 153 kts 160°
2026-04-30 12:38 37.87406 12.52757 1536 ft 159 kts 181°
2026-04-30 12:38 37.86332 12.52390 1920 ft 164 kts 206°
2026-04-30 12:38 37.85450 12.51461 2307 ft 169 kts 235°
2026-04-30 12:39 37.84986 12.50104 2685 ft 170 kts 260°
2026-04-30 12:39 37.85045 12.48687 3058 ft 161 kts 284°
2026-04-30 12:39 37.85585 12.47424 3438 ft 171 kts 313°
2026-04-30 12:39 37.86596 12.46535 3829 ft 185 kts 340°
2026-04-30 12:40 37.87904 12.46383 4224 ft 196 kts
2026-04-30 12:40 37.89254 12.46783 4615 ft 202 kts 14°
2026-04-30 12:40 37.90649 12.47180 5011 ft 208 kts 11°
2026-04-30 12:40 37.92086 12.47525 5398 ft 212 kts 11°
2026-04-30 12:41 37.93537 12.47890 5777 ft 217 kts 10°
2026-04-30 12:41 37.95016 12.47684 6144 ft 219 kts 334°
2026-04-30 12:41 37.96341 12.46703 6525 ft 221 kts 330°
2026-04-30 12:41 37.97715 12.45802 6908 ft 222 kts 334°
2026-04-30 12:42 37.99115 12.44954 7282 ft 224 kts 334°
2026-04-30 12:42 38.00488 12.44052 7745 ft 221 kts 332°
2026-04-30 12:42 38.01831 12.43115 8244 ft 220 kts 331°
2026-04-30 12:42 38.03178 12.42180 8749 ft 220 kts 332°
2026-04-30 12:43 38.04513 12.41282 9233 ft 221 kts 332°
2026-04-30 12:43 38.05880 12.40381 9730 ft 222 kts 334°
2026-04-30 12:43 38.07379 12.40067 10221 ft 223 kts 11°
2026-04-30 12:43 38.08777 12.40887 10722 ft 223 kts 37°
2026-04-30 12:44 38.09962 12.42128 11219 ft 222 kts 40°
2026-04-30 12:44 38.11155 12.43382 11716 ft 222 kts 38°
2026-04-30 12:44 38.12377 12.44579 12219 ft 221 kts 37°
2026-04-30 12:44 38.13592 12.45781 12717 ft 220 kts 38°
2026-04-30 12:45 38.14786 12.47006 13181 ft 221 kts 39°
2026-04-30 12:45 38.15989 12.48252 13577 ft 225 kts 39°
2026-04-30 12:45 38.17307 12.49328 13914 ft 228 kts 16°
2026-04-30 12:45 38.18875 12.49398 14268 ft 231 kts 355°
2026-04-30 12:46 38.20486 12.49238 14617 ft 233 kts 356°
2026-04-30 12:46 38.22115 12.49167 14973 ft 235 kts 359°
2026-04-30 12:46 38.23753 12.49107 15329 ft 236 kts 358°
2026-04-30 12:46 38.25396 12.48999 15682 ft 236 kts 356°
2026-04-30 12:47 38.27040 12.48866 16029 ft 237 kts 356°
2026-04-30 12:47 38.28688 12.48747 16378 ft 237 kts 357°
2026-04-30 12:47 38.30335 12.48649 16727 ft 237 kts 357°
2026-04-30 12:47 38.31981 12.48551 17075 ft 236 kts 357°
2026-04-30 12:48 38.33624 12.48441 17422 ft 236 kts 357°
2026-04-30 12:48 38.35242 12.48326 17741 ft 237 kts 357°
2026-04-30 12:48 38.36898 12.48214 18067 ft 238 kts 357°
2026-04-30 12:48 38.38559 12.48108 18392 ft 239 kts 357°
2026-04-30 12:49 38.40226 12.48002 18717 ft 240 kts 357°
2026-04-30 12:49 38.41895 12.47890 19041 ft 241 kts 357°
2026-04-30 12:49 38.43575 12.47775 19367 ft 241 kts 357°
2026-04-30 12:49 38.45257 12.47657 19691 ft 242 kts 356°
2026-04-30 12:50 38.46924 12.47534 20012 ft 243 kts 356°
2026-04-30 12:50 38.48614 12.47408 20337 ft 244 kts 356°
2026-04-30 12:50 38.50311 12.47286 20668 ft 245 kts 357°
2026-04-30 12:50 38.52019 12.47168 20988 ft 247 kts 357°
2026-04-30 12:51 38.53738 12.47044 21314 ft 248 kts 356°
2026-04-30 12:51 38.55469 12.46917 21640 ft 250 kts 356°
2026-04-30 12:51 38.57216 12.46788 21966 ft 252 kts 356°
2026-04-30 12:51 38.58973 12.46663 22293 ft 254 kts 357°
2026-04-30 12:52 38.60749 12.46544 22599 ft 256 kts 357°
2026-04-30 12:52 38.62538 12.46428 22893 ft 259 kts 357°
2026-04-30 12:52 38.64349 12.46304 23204 ft 261 kts 357°
2026-04-30 12:52 38.66152 12.46176 23503 ft 264 kts 356°
2026-04-30 12:53 38.67990 12.46047 23805 ft 266 kts 357°
2026-04-30 12:53 38.69850 12.45922 24108 ft 268 kts 357°
2026-04-30 12:53 38.71723 12.45798 24411 ft 270 kts 357°
2026-04-30 12:53 38.73608 12.45668 24713 ft 272 kts 357°
2026-04-30 12:54 38.75510 12.45533 25017 ft 274 kts 357°
2026-04-30 12:54 38.77423 12.45401 25316 ft 276 kts 357°
2026-04-30 12:54 38.79353 12.45271 25613 ft 278 kts 357°
2026-04-30 12:54 38.81268 12.45142 25988 ft 277 kts 357°
2026-04-30 12:55 38.83193 12.45011 26463 ft 274 kts 357°
2026-04-30 12:55 38.85097 12.44878 26934 ft 273 kts 357°
2026-04-30 12:55 38.86990 12.44676 27402 ft 273 kts 348°
2026-04-30 12:55 38.88765 12.43839 27874 ft 272 kts 335°
2026-04-30 12:56 38.90467 12.42778 28346 ft 271 kts 334°
2026-04-30 12:56 38.92187 12.41790 28817 ft 271 kts 338°
2026-04-30 12:56 38.93933 12.40902 29288 ft 270 kts 338°
2026-04-30 12:56 38.95649 12.40005 29751 ft 269 kts 337°
2026-04-30 12:57 38.97389 12.39029 29935 ft 280 kts 336°
2026-04-30 12:57 38.99217 12.37986 29945 ft 295 kts 336°
2026-04-30 12:57 39.01144 12.36920 29952 ft 306 kts 337°
2026-04-30 12:57 39.03146 12.35839 29952 ft 318 kts 337°
2026-04-30 12:58 39.05225 12.34711 29951 ft 329 kts 337°
2026-04-30 12:58 39.07359 12.33527 29951 ft 339 kts 336°
2026-04-30 12:58 39.11789 12.31061 29950 ft 354 kts 337°
2026-04-30 12:59 39.16410 12.28533 29948 ft 366 kts 337°
2026-04-30 12:59 39.21140 12.25902 29949 ft 379 kts 336°
2026-04-30 13:00 39.26041 12.23177 29950 ft 387 kts 337°
2026-04-30 13:00 39.31037 12.20431 29996 ft 392 kts 337°
2026-04-30 13:01 39.36083 12.17631 30000 ft 395 kts 336°
2026-04-30 13:01 39.41111 12.14804 30010 ft 397 kts 336°
2026-04-30 13:02 39.46214 12.11993 30017 ft 399 kts 337°
2026-04-30 13:02 39.51336 12.09155 30010 ft 401 kts 336°
2026-04-30 13:03 39.56432 12.06255 30012 ft 403 kts 336°
2026-04-30 13:03 39.61603 12.03379 30004 ft 405 kts 337°
2026-04-30 13:04 39.66799 12.00511 30004 ft 405 kts 336°
2026-04-30 13:04 39.71981 11.97540 30010 ft 406 kts 336°
2026-04-30 13:05 39.77133 11.94640 30012 ft 406 kts 337°
2026-04-30 13:06 39.84963 11.90387 30012 ft 406 kts 340°
2026-04-30 13:06 39.87709 11.89490 29988 ft 407 kts 353°
2026-04-30 13:06 39.90538 11.89469 29992 ft 406 kts
2026-04-30 13:07 39.96152 11.90053 29995 ft 406 kts
2026-04-30 13:07 40.01813 11.90277 29996 ft 406 kts
2026-04-30 13:08 40.07459 11.90738 29996 ft 407 kts
2026-04-30 13:08 40.13094 11.91526 29996 ft 407 kts
2026-04-30 13:09 40.18717 11.91924 29995 ft 407 kts
2026-04-30 13:09 40.24371 11.92194 29995 ft 407 kts
2026-04-30 13:10 40.30011 11.92897 29995 ft 407 kts
2026-04-30 13:10 40.35655 11.93475 29995 ft 407 kts
2026-04-30 13:11 40.40361 11.93665 29996 ft 407 kts
2026-04-30 13:11 40.46021 11.94174 29994 ft 407 kts
2026-04-30 13:12 40.51654 11.94899 29994 ft 407 kts
2026-04-30 13:12 40.57310 11.95230 29994 ft 407 kts
2026-04-30 13:13 40.65752 11.95976 29994 ft 407 kts
2026-04-30 13:14 40.74207 11.96796 29995 ft 407 kts
2026-04-30 13:14 40.82692 11.97415 29995 ft 407 kts
2026-04-30 13:15 40.91150 11.98358 29993 ft 407 kts
2026-04-30 13:16 40.96817 11.98630 29993 ft 407 kts
2026-04-30 13:16 41.02423 11.99232 29993 ft 407 kts
2026-04-30 13:17 41.10896 12.00069 29993 ft 407 kts
2026-04-30 13:18 41.19381 12.00693 29993 ft 407 kts
2026-04-30 13:18 41.27804 12.01637 29993 ft 407 kts
2026-04-30 13:19 41.33463 12.01951 29992 ft 407 kts
2026-04-30 13:19 41.39093 12.02648 29992 ft 407 kts
2026-04-30 13:20 41.44725 12.03404 29993 ft 407 kts
2026-04-30 13:20 41.50387 12.03754 29992 ft 407 kts
2026-04-30 13:21 41.56032 12.04317 29993 ft 407 kts
2026-04-30 13:22 41.64443 12.05406 29992 ft 407 kts
2026-04-30 13:22 41.72935 12.06022 29991 ft 407 kts
2026-04-30 13:23 41.81351 12.07179 29991 ft 407 kts
2026-04-30 13:24 41.92658 12.08106 29991 ft 407 kts
2026-04-30 13:25 42.03938 12.09408 29990 ft 406 kts
2026-04-30 13:26 42.17992 12.11004 29991 ft 406 kts
2026-04-30 13:28 42.32019 12.12337 29990 ft 393 kts
2026-04-30 13:28 42.37323 12.12988 29990 ft 381 kts
2026-04-30 13:28 42.39981 12.13171 29990 ft 382 kts
2026-04-30 13:29 42.50603 12.14393 29993 ft 385 kts
2026-04-30 13:31 42.64005 12.15743 29996 ft 387 kts
2026-04-30 13:32 42.77380 12.17547 29996 ft 387 kts
2026-04-30 13:33 42.88084 12.19355 29996 ft 387 kts
2026-04-30 13:34 42.96111 12.20748 29996 ft 387 kts
2026-04-30 13:35 43.06799 12.22438 29996 ft 387 kts
2026-04-30 13:35 43.12078 12.23400 29660 ft 379 kts
2026-04-30 13:36 43.16889 12.24265 28614 ft 359 kts
2026-04-30 13:36 43.19346 12.24623 28061 ft 351 kts
2026-04-30 13:36 43.24077 12.25378 26962 ft 338 kts
2026-04-30 13:37 43.26396 12.25817 26409 ft 333 kts
2026-04-30 13:37 43.30940 12.26607 25305 ft 325 kts
2026-04-30 13:38 43.35385 12.27300 24203 ft 317 kts
2026-04-30 13:38 43.37564 12.27683 23653 ft 314 kts
2026-04-30 13:38 43.41794 12.28439 22852 ft 300 kts
2026-04-30 13:39 43.45904 12.29108 22196 ft 296 kts
2026-04-30 13:39 43.49983 12.29806 21543 ft 294 kts
2026-04-30 13:40 43.52010 12.30161 21217 ft 293 kts
2026-04-30 13:40 43.54029 12.30504 20891 ft 291 kts
2026-04-30 13:40 43.56041 12.30838 20566 ft 290 kts
2026-04-30 13:40 43.58021 12.31168 20244 ft 289 kts
2026-04-30 13:41 43.60016 12.31511 19920 ft 288 kts
2026-04-30 13:41 43.62006 12.31859 19594 ft 287 kts
2026-04-30 13:41 43.63984 12.32202 19269 ft 286 kts
2026-04-30 13:41 43.65954 12.32534 18958 ft 284 kts
2026-04-30 13:42 43.67910 12.32860 18658 ft 282 kts
2026-04-30 13:42 43.69854 12.33191 18357 ft 281 kts
2026-04-30 13:42 43.73712 12.33864 17756 ft 278 kts
2026-04-30 13:43 43.75631 12.34194 17456 ft 277 kts
2026-04-30 13:43 43.77515 12.34539 17155 ft 276 kts 11°
2026-04-30 13:43 43.79179 12.35776 16841 ft 275 kts 46°
2026-04-30 13:43 43.80025 12.38106 16541 ft 275 kts 80°
2026-04-30 13:44 43.79791 12.40687 16261 ft 273 kts 112°
2026-04-30 13:44 43.79107 12.43111 15982 ft 267 kts 99°
2026-04-30 13:44 43.79424 12.45576 15695 ft 263 kts 61°
2026-04-30 13:44 43.80682 12.47354 15417 ft 259 kts 35°
2026-04-30 13:45 43.84067 12.48475 14861 ft 253 kts 352°
2026-04-30 13:45 43.85725 12.47729 14588 ft 251 kts 332°
2026-04-30 13:45 43.87086 12.46239 14312 ft 250 kts 311°
2026-04-30 13:46 43.87994 12.44206 14036 ft 249 kts 291°
2026-04-30 13:46 43.88431 12.41929 13767 ft 247 kts 282°
2026-04-30 13:46 43.88810 12.39607 13493 ft 246 kts 284°
2026-04-30 13:46 43.89259 12.37314 13222 ft 245 kts 285°
2026-04-30 13:47 43.89700 12.35033 12948 ft 244 kts 284°
2026-04-30 13:47 43.90102 12.32746 12666 ft 244 kts 283°
2026-04-30 13:47 43.90442 12.30446 12392 ft 242 kts 276°
2026-04-30 13:47 43.90241 12.28143 12114 ft 242 kts 253°
2026-04-30 13:48 43.89528 12.26045 11839 ft 241 kts 233°
2026-04-30 13:48 43.88364 12.24425 11567 ft 241 kts 217°
2026-04-30 13:48 43.86870 12.23411 11290 ft 240 kts 196°
2026-04-30 13:48 43.85221 12.23090 11015 ft 240 kts 177°
2026-04-30 13:49 43.83584 12.23578 10740 ft 239 kts 160°
2026-04-30 13:49 43.82176 12.24738 10468 ft 238 kts 139°
2026-04-30 13:49 43.81092 12.26457 10192 ft 237 kts 121°
2026-04-30 13:49 43.80508 12.28567 10008 ft 229 kts 103°
2026-04-30 13:50 43.80175 12.30630 9999 ft 217 kts 103°
2026-04-30 13:50 43.79452 12.34517 9990 ft 201 kts 105°
2026-04-30 13:50 43.79107 12.36365 9989 ft 195 kts 104°
2026-04-30 13:51 43.78789 12.38173 9989 ft 191 kts 103°
2026-04-30 13:51 43.78480 12.39943 9985 ft 187 kts 103°
2026-04-30 13:51 43.78285 12.41728 9890 ft 190 kts 90°
2026-04-30 13:51 43.78482 12.43571 9795 ft 198 kts 73°
2026-04-30 13:52 43.79058 12.45338 9703 ft 205 kts 57°
2026-04-30 13:52 43.79988 12.46854 9605 ft 209 kts 41°
2026-04-30 13:52 43.81206 12.47958 9523 ft 211 kts 25°
2026-04-30 13:52 43.82593 12.48533 9432 ft 212 kts
2026-04-30 13:53 43.84070 12.48531 9337 ft 213 kts 351°
2026-04-30 13:53 43.85516 12.48075 9237 ft 213 kts 353°
2026-04-30 13:53 43.86932 12.48539 9129 ft 214 kts 34°
2026-04-30 13:53 43.87658 12.49467 9034 ft 216 kts 48°
2026-04-30 13:54 43.88523 12.51985 8699 ft 224 kts 81°
2026-04-30 13:54 43.88410 12.54135 8450 ft 227 kts 108°
2026-04-30 13:54 43.87608 12.56014 8205 ft 229 kts 134°
2026-04-30 13:54 43.86388 12.57406 7973 ft 230 kts 143°
2026-04-30 13:55 43.85121 12.58780 7720 ft 231 kts 140°
2026-04-30 13:55 43.83952 12.60254 7470 ft 220 kts 136°
2026-04-30 13:55 43.82929 12.61759 7212 ft 209 kts 122°
2026-04-30 13:55 43.82600 12.63645 6949 ft 200 kts 89°
2026-04-30 13:56 43.82848 12.65506 6692 ft 194 kts 75°
2026-04-30 13:56 43.83179 12.67289 6434 ft 189 kts 76°
2026-04-30 13:56 43.83454 12.69044 6178 ft 185 kts 78°
2026-04-30 13:56 43.83404 12.70759 5922 ft 181 kts 109°
2026-04-30 13:57 43.82938 12.72374 5665 ft 179 kts 110°
2026-04-30 13:57 43.82570 12.74010 5404 ft 177 kts 106°
2026-04-30 13:57 43.82227 12.75640 5163 ft 175 kts 107°
2026-04-30 13:57 43.81854 12.77237 4912 ft 174 kts 108°
2026-04-30 13:58 43.81467 12.78818 4660 ft 172 kts 109°
2026-04-30 13:58 43.80710 12.81949 4157 ft 170 kts 108°
2026-04-30 13:58 43.80465 12.82977 3989 ft 169 kts 108°
2026-04-30 13:59 43.80395 12.85080 3678 ft 167 kts 72°
2026-04-30 13:59 43.80900 12.86467 3574 ft 158 kts 49°
2026-04-30 13:59 43.81761 12.87347 3467 ft 152 kts 26°
2026-04-30 13:59 43.82761 12.87887 3366 ft 161 kts 20°
2026-04-30 14:00 43.83495 12.88251 3305 ft 170 kts 20°
2026-04-30 14:00 43.85830 12.89429 3137 ft 186 kts 18°
2026-04-30 14:00 43.87105 12.89461 3046 ft 186 kts 344°
2026-04-30 14:01 43.88232 12.88623 2944 ft 185 kts 316°
2026-04-30 14:01 43.88984 12.87189 2855 ft 184 kts 302°
2026-04-30 14:01 43.89692 12.85713 2759 ft 184 kts 305°
2026-04-30 14:01 43.90432 12.84299 2669 ft 181 kts 306°
2026-04-30 14:02 43.91120 12.82961 2570 ft 161 kts 305°
2026-04-30 14:02 43.91764 12.81654 2472 ft 167 kts 303°
2026-04-30 14:02 43.92387 12.80365 2361 ft 153 kts 304°
2026-04-30 14:02 43.92968 12.79173 2245 ft 147 kts 304°
2026-04-30 14:03 43.93535 12.78015 2131 ft 144 kts 304°
2026-04-30 14:03 43.94083 12.76899 2023 ft 136 kts 304°
2026-04-30 14:03 43.94605 12.75829 1917 ft 137 kts 304°
2026-04-30 14:03 43.95147 12.74720 1906 ft 142 kts 303°
2026-04-30 14:04 43.95663 12.73539 1904 ft 144 kts 300°
2026-04-30 14:04 43.96167 12.72318 1885 ft 146 kts 300°
2026-04-30 14:04 43.96679 12.71079 1780 ft 151 kts 300°
2026-04-30 14:04 43.97261 12.69844 1596 ft 154 kts 305°
2026-04-30 14:05 43.97897 12.68642 1421 ft 154 kts 307°
2026-04-30 14:05 43.98542 12.67454 1246 ft 154 kts 307°
2026-04-30 14:05 43.99187 12.66267 1077 ft 154 kts 308°
2026-04-30 14:05 43.99842 12.65090 783 ft 159 kts 308°
2026-04-30 14:06 44.00523 12.63873 441 ft 160 kts 308°
2026-04-30 14:06 44.01825 12.61541 42 ft 118 kts 308°
2026-04-30 14:07 44.02297 12.60697 39 ft 29 kts 308°
2026-04-30 14:07 44.02372 12.60518 38 ft 21 kts 294°
2026-04-30 14:07 44.02372 12.60567 38 ft 14 kts 133°
2026-04-30 14:08 44.02289 12.60814 40 ft 15 kts 37°
2026-04-30 14:08 44.02323 12.60850 39 ft 0 kts 38°
2026-04-30 14:08 44.02373 12.60903 39 ft 9 kts 37°
2026-04-30 14:09 44.02373 12.60992 39 ft 12 kts 127°
2026-04-30 14:09 44.02315 12.61097 40 ft 15 kts 128°
2026-04-30 14:09 44.02176 12.61365 41 ft 17 kts 92°
2026-04-30 14:10 44.02260 12.61484 42 ft 19 kts 37°
2026-04-30 14:10 44.02354 12.61543 41 ft 12 kts 13°
2026-04-30 14:10 44.02387 12.61536 41 ft 2 kts 306°
2026-04-30 14:10 44.02388 12.61534 41 ft 0 kts 306°